Regional Weather Roundup
Issued by NWS

Home | Current Version | Previous Version | Text Only | Print | Product List | Glossary On
Versions: 1 2 3 4 5 6 7 8 9 10 11 12 13 14 15 16 17 18 19 20 21 22 23 24 25 26 27 28 29 30 31 32 33 34 35 36 37 38 39 40 41 42 43 44 45 46 47 48 49 50
000
ASUS45 KABQ 280501
RWRNM
NEW MEXICO REGIONAL WEATHER ROUNDUP
NATIONAL WEATHER SERVICE ALBUQUERQUE NM
1100 PM MDT WED JUL 27 2016

NOTE: "FAIR" MEANS FEW OR NO CLOUDS BELOW 12,000 FEET AGL WITH NO
       SIGNIFICANT WEATHER OR OBSTRUCTIONS TO VISION.

      THIS PRODUCT IS RELEASED AS TWO VERSIONS.  ONE VERSION NEAR
      THE TOP OF THE HOUR CONTAINING PRELIMINARY DATA FROM ALBUQUERQUE
      AND OTHER STATIONS.  A FINAL VERSION WITH ADDITIONAL DATA IS
      ISSUED ABOUT 10 MINUTES AFTER THE HOUR.

NMZ501-503-504-510>518-280600-
NORTHWEST PLATEAU/NORTHCENTRAL MOUNTAINS

CITY           SKY/WX    TMP DP  RH WIND       PRES   REMARKS
FARMINGTON     FAIR      81  34  18 N15       30.09S
LOS ALAMOS     FAIR      73  40  29 S9        30.35R
SANTA FE       FAIR      74  49  41 SE18      30.26R
TAOS           FAIR      73  36  25 SE13      30.33R
ANGEL FIRE     FAIR      54  45  72 E6        30.47S

$$
NMZ402-403-502-505>509-280600-
WESTCENTRAL MOUNTAINS/SOUTHWEST MOUNTAINS

CITY           SKY/WX    TMP DP  RH WIND       PRES   REMARKS
GALLUP         FAIR      68  31  25 CALM      30.23R
GRANTS         FAIR      72  44  35 S5        30.26F
SILVER CITY    FAIR      70  61  73 N8        30.19R

$$
NMZ407-409-411-412-280600-
SOUTHERN DESERTS

CITY           SKY/WX    TMP DP  RH WIND       PRES   REMARKS
LORDSBURG      FAIR      72  61  68 CALM      30.10S
DEMING         FAIR      73  67  81 CALM      30.11R
LAS CRUCES     FAIR      81  55  41 S3        30.12R
HOLLOMAN AFB   FAIR      80  60  50 E3        30.08R
ALAMOGORDO     FAIR      79  55  44 NE5       30.11S
T OR C         CLOUDY    73  60  63 W7        30.17F

$$
NMZ519>523-280600-
CENTRAL VALLEYS/CENTRAL HIGHLANDS

CITY           SKY/WX    TMP DP  RH WIND       PRES   REMARKS
ALBUQUERQUE    FAIR      81  43  26 SW5       30.19R
DOUBLE EAGLE   FAIR      75  45  34 S8        30.22R
MORIARTY ARPT  FAIR      65  55  69 SE9       30.28S
CLINES CORNERS FAIR      64  51  62 SE9       30.35R
BELEN          FAIR      76  51  40 S12       30.17R
SOCORRO        FAIR      72  59  63 S7        30.16R

$$
NMZ524>526-539-540-280600-
SOUTHCENTRAL MOUNTAINS

CITY           SKY/WX    TMP DP  RH WIND       PRES   REMARKS
RUIDOSO          N/A     66  50  55 CALM      30.35S

$$
NMZ527>531-280600-
NORTHEAST HIGHLANDS/NORTHEAST PLAINS

CITY           SKY/WX    TMP DP  RH WIND       PRES   REMARKS
LAS VEGAS      FAIR      65  49  56 CALM      30.35R
RATON          FAIR     N/A N/A N/A SW10      30.32R
CLAYTON        FAIR      65  61  87 SW8       30.23R

$$
NMZ532>537-280600-
EASTCENTRAL PLAINS

CITY           SKY/WX    TMP DP  RH WIND       PRES   REMARKS
TUCUMCARI      FAIR      73  59  61 SE14G26   30.18R
CANNON AFB     FAIR      70  62  77 E24G33    30.19R
CLOVIS AIRPORT FAIR      70  55  60 E23G30    30.21R

$$
NMZ028-029-538-280600-
SOUTHEAST PLAINS

CITY           SKY/WX    TMP DP  RH WIND       PRES   REMARKS
ROSWELL        FAIR      79  61  53 CALM      30.08R
ARTESIA        FAIR      82  57  42 SE5       30.07R
CARLSBAD       FAIR      82  59  45 E5        30.04R
HOBBS          FAIR      81  57  44 NE8       30.10R


$$




USA.gov is the U.S. government's official web portal to all federal, state and local government web resources and services.